Meteo orario Kozino

Oggi, 4 Marzo, Giovedi

Tempo Temperatura Precipitazioni Vento Pressione Umidità
00:00 0°C° 0 mm 5 m/s 745 mm Hg 87%
01:00 -1°C° 0 mm 4 m/s 744 mm Hg 87%
02:00 -1°C° 0 mm 4 m/s 744 mm Hg 89%
03:00 -1°C° 0.1 mm 4 m/s 743 mm Hg 92%
04:00 -1°C° 0.1 mm 4 m/s 742 mm Hg 94%
05:00 -1°C° 0.1 mm 4 m/s 742 mm Hg 96%
06:00 -1°C° 0.8 mm 3 m/s 742 mm Hg 96%
07:00 -1°C° 0.8 mm 3 m/s 741 mm Hg 96%
08:00 -1°C° 0 mm 3 m/s 742 mm Hg 97%
09:00 -1°C° 0.6 mm 3 m/s 742 mm Hg 94%
10:00 -1°C° 0.6 mm 2 m/s 741 mm Hg 92%
11:00 -1°C° 0.6 mm 2 m/s 741 mm Hg 89%
12:00 0°C° 0.2 mm 3 m/s 741 mm Hg 81%
13:00 0°C° 0.2 mm 3 m/s 741 mm Hg 73%
14:00 0°C° 0 mm 3 m/s 741 mm Hg 64%
15:00 0°C° 0.1 mm 3 m/s 742 mm Hg 67%
16:00 -1°C° 0.1 mm 3 m/s 742 mm Hg 70%
17:00 -2°C° 0.1 mm 3 m/s 742 mm Hg 74%
18:00 -4°C° 0 mm 3 m/s 742 mm Hg 77%
19:00 -5°C° 0 mm 3 m/s 743 mm Hg 80%
20:00 -6°C° 0 mm 3 m/s 744 mm Hg 82%
21:00 -6°C° 0 mm 3 m/s 744 mm Hg 83%
22:00 -6°C° 0 mm 2 m/s 744 mm Hg 84%
23:00 -6°C° 0 mm 2 m/s 744 mm Hg 85%

Domani, 5 Marzo, Venerdi

Tempo Temperatura Precipitazioni Vento Pressione Umidità
00:00 -6°C° 0 mm 2 m/s 744 mm Hg 85%
01:00 -6°C° 0 mm 2 m/s 744 mm Hg 85%
02:00 -6°C° 0 mm 2 m/s 745 mm Hg 85%
03:00 -6°C° 0 mm 2 m/s 745 mm Hg 85%
04:00 -5°C° 0 mm 2 m/s 745 mm Hg 86%
05:00 -6°C° 0 mm 3 m/s 745 mm Hg 86%
06:00 -6°C° 0.1 mm 3 m/s 745 mm Hg 86%
07:00 -6°C° 0.1 mm 3 m/s 745 mm Hg 86%
08:00 -7°C° 0.1 mm 4 m/s 745 mm Hg 86%
09:00 -5°C° 0.3 mm 4 m/s 746 mm Hg 82%
10:00 -6°C° 0.3 mm 5 m/s 746 mm Hg 78%
11:00 -6°C° 0.3 mm 6 m/s 746 mm Hg 74%
12:00 -6°C° 0.1 mm 5 m/s 747 mm Hg 68%
13:00 -6°C° 0.1 mm 5 m/s 747 mm Hg 62%
14:00 -6°C° 0.1 mm 5 m/s 748 mm Hg 57%
15:00 -5°C° 0 mm 4 m/s 748 mm Hg 58%
16:00 -5°C° 0 mm 3 m/s 748 mm Hg 59%
17:00 -6°C° 0 mm 3 m/s 749 mm Hg 60%
18:00 -5°C° 0 mm 2 m/s 749 mm Hg 64%
19:00 -6°C° 0 mm 2 m/s 750 mm Hg 69%
20:00 -6°C° 0 mm 1 m/s 750 mm Hg 73%
21:00 -6°C° 0 mm 1 m/s 751 mm Hg 76%
22:00 -6°C° 0 mm 1 m/s 751 mm Hg 79%
23:00 -7°C° 0 mm 1 m/s 751 mm Hg 82%

Dopodomani, 6 Marzo, Sabato

Tempo Temperatura Precipitazioni Vento Pressione Umidità
00:00 -7°C° 0 mm 1 m/s 752 mm Hg 84%
01:00 -7°C° 0 mm 1 m/s 752 mm Hg 86%
02:00 -7°C° 0 mm 1 m/s 753 mm Hg 89%
03:00 -8°C° 0 mm 2 m/s 753 mm Hg 89%
04:00 -8°C° 0 mm 2 m/s 753 mm Hg 90%
05:00 -8°C° 0 mm 2 m/s 753 mm Hg 90%
06:00 -8°C° 0 mm 2 m/s 753 mm Hg 89%
07:00 -8°C° 0 mm 2 m/s 753 mm Hg 87%
08:00 -7°C° 0 mm 2 m/s 753 mm Hg 86%
09:00 -7°C° 0 mm 3 m/s 753 mm Hg 78%
10:00 -6°C° 0 mm 3 m/s 753 mm Hg 70%
11:00 -5°C° 0 mm 3 m/s 753 mm Hg 63%
12:00 -5°C° 0 mm 3 m/s 753 mm Hg 58%
13:00 -4°C° 0 mm 4 m/s 752 mm Hg 53%
14:00 -3°C° 0 mm 4 m/s 752 mm Hg 48%
15:00 -3°C° 0 mm 4 m/s 751 mm Hg 51%
16:00 -4°C° 0 mm 4 m/s 750 mm Hg 54%
17:00 -5°C° 0 mm 5 m/s 749 mm Hg 57%
18:00 -5°C° 0 mm 5 m/s 748 mm Hg 60%
19:00 -4°C° 0 mm 5 m/s 747 mm Hg 63%
20:00 -4°C° 0 mm 6 m/s 747 mm Hg 67%
21:00 -4°C° 0 mm 6 m/s 745 mm Hg 66%
22:00 -4°C° 0 mm 6 m/s 744 mm Hg 65%
23:00 -4°C° 0 mm 7 m/s 743 mm Hg 64%

7 Marzo, Domenica

Tempo Temperatura Precipitazioni Vento Pressione Umidità
00:00 -4°C° 0.2 mm 7 m/s 742 mm Hg 73%
01:00 -6°C° 0.2 mm 7 m/s 740 mm Hg 82%
02:00 -6°C° 0.2 mm 7 m/s 739 mm Hg 91%
03:00 -6°C° 0.9 mm 7 m/s 739 mm Hg 90%
04:00 -6°C° 0.9 mm 7 m/s 738 mm Hg 90%
05:00 -4°C° 0.9 mm 7 m/s 737 mm Hg 89%
06:00 -6°C° 0.1 mm 6 m/s 738 mm Hg 76%
07:00 -8°C° 0.1 mm 6 m/s 739 mm Hg 64%
08:00 -8°C° 0.1 mm 5 m/s 739 mm Hg 51%
09:00 -9°C° 0 mm 6 m/s 739 mm Hg 48%
10:00 -8°C° 0 mm 6 m/s 740 mm Hg 46%
11:00 -6°C° 0 mm 6 m/s 740 mm Hg 43%
12:00 -5°C° 0.1 mm 6 m/s 739 mm Hg 46%
13:00 -5°C° 0.1 mm 6 m/s 739 mm Hg 48%
14:00 -4°C° 0.1 mm 7 m/s 739 mm Hg 50%
15:00 -5°C° 0.1 mm 6 m/s 738 mm Hg 53%
16:00 -5°C° 0.1 mm 6 m/s 737 mm Hg 56%
17:00 -5°C° 0.1 mm 5 m/s 736 mm Hg 58%
18:00 -6°C° 0.1 mm 5 m/s 736 mm Hg 65%
19:00 -6°C° 0.1 mm 6 m/s 736 mm Hg 71%
20:00 -8°C° 0.1 mm 6 m/s 736 mm Hg 77%
21:00 -9°C° 0.2 mm 6 m/s 736 mm Hg 76%
22:00 -11°C° 0.2 mm 7 m/s 737 mm Hg 75%
23:00 -11°C° 0.2 mm 7 m/s 737 mm Hg 74%

8 Marzo, Lunedi

Tempo Temperatura Precipitazioni Vento Pressione Umidità
00:00 -11°C° 0 mm 6 m/s 738 mm Hg 73%
01:00 -12°C° 0 mm 6 m/s 739 mm Hg 72%
02:00 -12°C° 0 mm 6 m/s 740 mm Hg 71%
03:00 -13°C° 0 mm 5 m/s 741 mm Hg 73%
04:00 -12°C° 0 mm 4 m/s 742 mm Hg 76%
05:00 -12°C° 0 mm 4 m/s 743 mm Hg 78%
06:00 -12°C° 0 mm 4 m/s 743 mm Hg 78%
07:00 -12°C° 0 mm 4 m/s 744 mm Hg 78%
08:00 -12°C° 0 mm 3 m/s 744 mm Hg 79%
09:00 -11°C° 0 mm 4 m/s 745 mm Hg 77%
10:00 -11°C° 0 mm 4 m/s 745 mm Hg 75%
11:00 -10°C° 0 mm 4 m/s 746 mm Hg 73%
12:00 -10°C° 0 mm 4 m/s 746 mm Hg 71%
13:00 -10°C° 0 mm 4 m/s 747 mm Hg 68%
14:00 -10°C° 0 mm 4 m/s 747 mm Hg 66%
15:00 -10°C° 0 mm 4 m/s 747 mm Hg 69%
16:00 -11°C° 0 mm 4 m/s 748 mm Hg 72%
17:00 -11°C° 0 mm 4 m/s 748 mm Hg 75%
18:00 -12°C° 0 mm 4 m/s 749 mm Hg 78%
19:00 -12°C° 0 mm 4 m/s 750 mm Hg 81%
20:00 -14°C° 0 mm 4 m/s 750 mm Hg 84%
21:00 -13°C° 0 mm 3 m/s 751 mm Hg 84%
22:00 -14°C° 0 mm 3 m/s 752 mm Hg 84%
23:00 -14°C° 0 mm 3 m/s 752 mm Hg 85%

9 Marzo, Martedi

Tempo Temperatura Precipitazioni Vento Pressione Umidità
00:00 -14°C° 0 mm 3 m/s 753 mm Hg 86%
01:00 -14°C° 0 mm 2 m/s 753 mm Hg 88%
02:00 -14°C° 0 mm 2 m/s 753 mm Hg 89%
03:00 -14°C° 0 mm 2 m/s 754 mm Hg 90%
04:00 -14°C° 0 mm 2 m/s 754 mm Hg 91%
05:00 -15°C° 0 mm 2 m/s 754 mm Hg 91%
06:00 -14°C° 0 mm 2 m/s 755 mm Hg 88%
07:00 -14°C° 0 mm 2 m/s 755 mm Hg 85%
08:00 -13°C° 0 mm 2 m/s 756 mm Hg 82%
09:00 -12°C° 0 mm 2 m/s 756 mm Hg 76%
10:00 -9°C° 0 mm 2 m/s 756 mm Hg 70%
11:00 -7°C° 0 mm 2 m/s 756 mm Hg 64%
12:00 -6°C° 0 mm 2 m/s 756 mm Hg 62%
13:00 -5°C° 0 mm 2 m/s 756 mm Hg 61%
14:00 -4°C° 0 mm 2 m/s 756 mm Hg 59%
15:00 -5°C° 0 mm 2 m/s 756 mm Hg 60%
16:00 -5°C° 0 mm 2 m/s 756 mm Hg 62%
17:00 -5°C° 0 mm 2 m/s 756 mm Hg 63%
18:00 -5°C° 0 mm 2 m/s 756 mm Hg 66%
19:00 -7°C° 0 mm 3 m/s 756 mm Hg 68%
20:00 -8°C° 0 mm 3 m/s 756 mm Hg 71%
21:00 -7°C° 0 mm 3 m/s 757 mm Hg 71%
22:00 -7°C° 0 mm 3 m/s 757 mm Hg 72%
23:00 -7°C° 0 mm 3 m/s 757 mm Hg 72%
Mostrare altro